Location: *
(50.6089°N, 2.2719°E)
Time: 04:57:47
(UTC+00:00)

SMAP - Pass Details

Date: 18 October 2019
Orbit: 682 x 683 km, 98.1° (Epoch: 12 November)

Event Time Altitude Azimuth Distance (km) Brightness Sun altitude
Rises 17:24:18 0° 174° (S) 3,033 6.4 -5.6°
Reaches altitude 10° 17:26:34 10° 178° (S) 2,122 5.7 -6.0°
Maximum altitude 17:31:09 60° 258° (WSW) 784 3.8 -6.7°
Drops below altitude 10° 17:35:47 10° 339° (NNW) 2,138 5.8 -7.4°
Sets 17:38:04 0° 343° (NNW) 3,058 6.6 -7.8°
